GAOFEN-12 04

Last updated on Thu Oct 30 2025 00:02:32 GMT+0000 (Coordinated Universal Time)

1 57654U 23123A 25302.51189647 .00002012 00000+0 27604-3 0 9997 2 57654 97.9081 218.9566 0001762 83.3904 276.7508 14.79497248118519
UTC large
Height (km)
Speed (km/s)
/
Latitude / Longitude
Inclination (degrees)
Orbital Period (minutes)
Azimuth
Elevation
Range (km)
Doppler Factor

Next 0 passes for location: London (51.5072 / 0.1276)

Sorry there are no passes over London.